Gadsden, AL

12:44 AM CDT on May 30, 2017 (GMT -0500)
Gadsden Municipal

Weather History for KGAD - October, 2011

Change the Weather History Date:

Monday, October 17, 2011

  Actual Average Record
Temperature  
Mean Temperature 63 °F -  
Max Temperature 82 °F 71 °F 86 °F (1938)
Min Temperature 44 °F 46 °F 33 °F (2001)
Degree Days  
Heating Degree Days 2    
Growing Degree Days 13 (Base 50)    
Moisture  
Dew Point 51 °F    
Average Humidity 71    
Maximum Humidity 94    
Minimum Humidity 39    
Precipitation  
Precipitation 0.00 in - - ()
Sea Level Pressure  
Sea Level Pressure 29.96 in    
Wind  
Wind Speed 1 mph (SW)    
Max Wind Speed 8 mph    
Max Gust Speed -    
Visibility 10 miles    
Events      
Averages and records for this station are not official NWS values.
T = Trace of Precipitation, MM = Missing Value Source: NWS Daily Summary

Daily Weather History Graph

Daily Weather History Graph

Search for Another Location

Airport or City:

Trip Planner

Search our weather history database for the weather conditions in past years. The results will help you decide how hot, cold, wet, or windy it might be!

Date:

Astronomy

Oct. 17, 2011 Rise Set
Actual Time 6:50 AM CDT 6:08 PM CDT
Civil Twilight 6:25 AM CDT 6:33 PM CDT
Nautical Twilight 5:56 AM CDT 7:02 PM CDT
Astronomical Twilight 5:27 AM CDT 7:31 PM CDT
Moon 9:59 PM CDT (10/17) 11:45 AM CDT (10/17)
Length of Visible Light 12h 07m
Length of Day
11h 17m
Waning Gibbous, 74% of the Moon is Illuminated
Oct 17
Waning Gibbous
Oct 19
Last Quarter
Oct 26
New
Nov 2
First Quarter
Nov 10
Full

Hourly Weather History & Observations

Time (CDT) Temp. Heat Index Dew Point Humidity Pressure Visibility Wind Dir Wind Speed Gust Speed Precip Events Conditions
12:15 AM 50.0 °F - 46.4 °F 87% 30.03 in 10.0 mi Calm Calm - N/A   Clear
12:35 AM 50.0 °F - 46.4 °F 87% 30.03 in 10.0 mi Calm Calm - N/A   Clear
12:55 AM 48.2 °F - 44.6 °F 87% 30.02 in 10.0 mi Calm Calm - N/A   Clear
1:15 AM 50.0 °F - 46.4 °F 87% 30.02 in 10.0 mi Calm Calm - N/A   Clear
1:35 AM 48.2 °F - 44.6 °F 87% 30.02 in 10.0 mi Calm Calm - N/A   Clear
1:55 AM 48.2 °F - 44.6 °F 87% 30.02 in 10.0 mi Calm Calm - N/A   Clear
2:15 AM 48.2 °F - 44.6 °F 87% 30.01 in 10.0 mi Calm Calm - N/A   Clear
2:35 AM 46.4 °F - 44.6 °F 93% 30.01 in 10.0 mi Calm Calm - N/A   Clear
2:55 AM 46.4 °F - 44.6 °F 93% 30.01 in 10.0 mi Calm Calm - N/A   Clear
3:15 AM 46.4 °F - 44.6 °F 93% 30.01 in 10.0 mi Calm Calm - N/A   Clear
3:35 AM 46.4 °F - 42.8 °F 87% 30.01 in 10.0 mi Calm Calm - N/A   Clear
3:55 AM 46.4 °F - 42.8 °F 87% 30.01 in 10.0 mi Calm Calm - N/A   Clear
4:15 AM 46.4 °F - 42.8 °F 87% 30.01 in 10.0 mi Calm Calm - N/A   Clear
4:35 AM 46.4 °F - 42.8 °F 87% 30.01 in 10.0 mi Calm Calm - N/A   Clear
5:15 AM 46.4 °F - 42.8 °F 87% 30.02 in 10.0 mi Calm Calm - N/A   Clear
5:35 AM 46.4 °F - 42.8 °F 87% 30.02 in 10.0 mi Calm Calm - N/A   Clear
5:55 AM 44.6 °F - 42.8 °F 93% 30.02 in 10.0 mi Calm Calm - N/A   Clear
6:15 AM 44.6 °F - 42.8 °F 93% 30.02 in 10.0 mi Calm Calm - N/A   Clear
6:55 AM 44.6 °F - 42.8 °F 93% 30.01 in 10.0 mi Calm Calm - N/A   Clear
7:15 AM 44.6 °F - 42.8 °F 93% 30.01 in 10.0 mi Calm Calm - N/A   Clear
7:55 AM 48.2 °F - 46.4 °F 93% 30.02 in 10.0 mi Calm Calm - N/A   Clear
8:15 AM 51.8 °F - 48.2 °F 88% 30.03 in 10.0 mi Calm Calm - N/A   Clear
8:35 AM 53.6 °F - 50.0 °F 88% 30.03 in 10.0 mi Calm Calm - N/A   Clear
9:15 AM 57.2 °F - 51.8 °F 82% 30.04 in 10.0 mi Calm Calm - N/A   Clear
9:35 AM 60.8 °F - 53.6 °F 77% 30.03 in 10.0 mi Calm Calm - N/A   Clear
10:15 AM 66.2 °F - 53.6 °F 64% 30.02 in 9.0 mi Calm Calm - N/A   Clear
10:35 AM 69.8 °F - 55.4 °F 60% 30.02 in 10.0 mi SW 3.5 mph - N/A   Clear
10:55 AM 71.6 °F - 55.4 °F 57% 30.02 in 10.0 mi Calm Calm - N/A   Clear
11:15 AM 73.4 °F - 57.2 °F 57% 30.00 in 10.0 mi Calm Calm - N/A   Clear
11:35 AM 75.2 °F - 57.2 °F 53% 30.00 in 10.0 mi Calm Calm - N/A   Clear
11:55 AM 77.0 °F - 57.2 °F 50% 29.98 in 10.0 mi WSW 4.6 mph - N/A   Clear
12:15 PM 78.8 °F - 57.2 °F 47% 29.97 in 10.0 mi West 3.5 mph - N/A   Clear
12:35 PM 80.6 °F 81.1 °F 59.0 °F 48% 29.96 in 10.0 mi WSW 8.1 mph - N/A   Clear
12:55 PM 80.6 °F 80.8 °F 57.2 °F 45% 29.94 in 10.0 mi WSW 8.1 mph - N/A   Clear
1:15 PM 82.4 °F 82.0 °F 57.2 °F 42% 29.93 in 10.0 mi SSW 8.1 mph - N/A   Clear
1:55 PM 82.4 °F 82.0 °F 57.2 °F 42% 29.91 in 10.0 mi West 4.6 mph - N/A   Clear
2:15 PM 82.4 °F 82.0 °F 57.2 °F 42% 29.90 in 10.0 mi South 5.8 mph - N/A   Clear
2:35 PM 82.4 °F 81.7 °F 55.4 °F 39% 29.89 in 9.0 mi NW 8.1 mph - N/A   Clear
2:55 PM 82.4 °F 81.7 °F 55.4 °F 39% 29.89 in 10.0 mi West 5.8 mph - N/A   Clear
3:15 PM 82.4 °F 81.7 °F 55.4 °F 39% 29.88 in 8.0 mi SW 6.9 mph - N/A   Clear
3:35 PM 82.4 °F 81.7 °F 55.4 °F 39% 29.88 in 10.0 mi South 5.8 mph - N/A   Clear
3:55 PM 82.4 °F 81.7 °F 55.4 °F 39% 29.88 in 10.0 mi WSW 8.1 mph - N/A   Clear
4:15 PM 82.4 °F 81.7 °F 55.4 °F 39% 29.88 in 10.0 mi SW 3.5 mph - N/A   Clear
4:35 PM 82.4 °F 81.7 °F 55.4 °F 39% 29.87 in 10.0 mi SW 5.8 mph - N/A   Clear
4:55 PM 80.6 °F 80.5 °F 55.4 °F 42% 29.87 in 10.0 mi South 5.8 mph - N/A   Clear
5:15 PM 80.6 °F 80.5 °F 55.4 °F 42% 29.87 in 10.0 mi SSW 4.6 mph - N/A   Clear
5:35 PM 75.2 °F - 57.2 °F 53% 29.87 in 10.0 mi SW 3.5 mph - N/A   Clear
5:55 PM 71.6 °F - 57.2 °F 60% 29.87 in 10.0 mi South 3.5 mph - N/A   Clear
6:15 PM 69.8 °F - 55.4 °F 60% 29.87 in 10.0 mi South 3.5 mph - N/A   Clear
6:35 PM 71.6 °F - 55.4 °F 57% 29.88 in 10.0 mi South 4.6 mph - N/A   Clear
6:55 PM 66.2 °F - 57.2 °F 73% 29.88 in 10.0 mi SW 3.5 mph - N/A   Clear
7:15 PM 62.6 °F - 55.4 °F 77% 29.88 in 10.0 mi Calm Calm - N/A   Clear
7:35 PM 62.6 °F - 57.2 °F 82% 29.88 in 10.0 mi Calm Calm - N/A   Clear
7:55 PM 60.8 °F - 55.4 °F 82% 29.88 in 10.0 mi Calm Calm - N/A   Clear
8:15 PM 60.8 °F - 55.4 °F 82% 29.88 in 10.0 mi Calm Calm - N/A   Clear
8:35 PM 60.8 °F - 55.4 °F 82% 29.88 in 10.0 mi Calm Calm - N/A   Clear
8:55 PM 60.8 °F - 55.4 °F 82% 29.88 in 10.0 mi Calm Calm - N/A   Clear
9:15 PM 59.0 °F - 55.4 °F 88% 29.88 in 10.0 mi Calm Calm - N/A   Clear
9:35 PM 57.2 °F - 53.6 °F 88% 29.87 in 10.0 mi Calm Calm - N/A   Clear
10:15 PM 55.4 °F - 53.6 °F 94% 29.87 in 10.0 mi West 3.5 mph - N/A   Clear
10:35 PM 55.4 °F - 53.6 °F 94% 29.87 in 10.0 mi Calm Calm - N/A   Clear
10:55 PM 55.4 °F - 51.8 °F 88% 29.87 in 10.0 mi Calm Calm - N/A   Clear
11:15 PM 55.4 °F - 51.8 °F 88% 29.86 in 10.0 mi Calm Calm - N/A   Clear
11:35 PM 55.4 °F - 51.8 °F 88% 29.85 in 10.0 mi Calm Calm - N/A   Clear
11:55 PM 53.6 °F - 50.0 °F 88% 29.85 in 3.0 mi Calm Calm - N/A   Clear